Tracking 25710 objects as of 5-Jul-2022
HD Live streaming from Space Station
objects crossing your sky now

FENGYUN 1C DEB

Track FENGYUN 1C DEB now!
10-day predictions


NORAD ID: 31809
Int'l Code: 1999-025CGX
Perigee: 648.7 km
Apogee: 686.5 km
Inclination: 98.8 °
Period: 97.9 minutes
Semi major axis: 7038 km
RCS: 0.0028 m2 (small)
Launch date: May 10, 1999
Source: People's Republic of China (PRC)
Launch site: Taiyaun Space Center, China (TSC)

Note: This is SATELLITE DEBRIS
aabbcc
Your satellite tracking list
Your tracking list is empty




NASA's NSSDC Master Catalog

Two Line Element Set (TLE):
1 31809U 99025CGX 22184.49040102  .00005604  00000-0  93419-3 0  9997
2 31809  98.8026 100.5472 0026871  68.8000 291.6071 14.70195540477742
Source of the keplerian elements: AFSPC